FW8731 Weather Reports


time (UTC)temp
C
wind
direction
speed
KPH
gust
KPH
rain 1hr
cm
rain 24hr
cm
rain mn
cm
humidity
%
barometer
mb
20260504081537 13 106 1.6 6.4 0.00 0.36 0.00 94 1011.9
20260504044547 14 0 1.6 4.8 0.00 0.36 0.36 91 1011.1
20260504043039 15 97 0.0 4.8 0.00 0.36 0.36 91 1011.1
20260504041542 15 128 1.6 11.3 0.00 0.36 0.36 90 1010.9
20260504040042 14 183 4.8 16.1 0.00 0.36 0.36 92 1010.6
20260504034545 14 157 1.6 4.8 0.00 0.36 0.36 93 1010.3
20260504033043 14 0 0.0 1.6 0.00 0.36 0.36 93 1010.4
20260504031543 14 192 0.0 1.6 0.00 0.36 0.36 92 1010.4
20260504030047 15 0 0.0 3.2 0.00 0.36 0.36 92 1010.4
20260504024545 15 0 0.0 4.8 0.00 0.36 0.36 92 1010.4
20260504023043 15 175 0.0 3.2 0.00 0.36 0.36 92 1010.4
20260504021541 15 0 0.0 8.0 0.00 0.36 0.36 92 1010.6
20260504020041 15 122 1.6 3.2 0.00 0.36 0.36 92 1010.8
20260504014540 15 0 0.0 1.6 0.00 0.36 0.36 92 1010.6
20260504013102 15 0 0.0 1.6 0.00 0.36 0.36 92 1010.2
20260504011543 15 0 0.0 3.2 0.03 0.36 0.36 90 1010.1
20260504010043 15 122 0.0 6.4 0.18 0.36 0.36 89 1010.3
20260504004538 15 98 0.0 4.8 0.36 0.36 0.36 89 1010.6
20260504003044 15 172 3.2 8.0 0.36 0.36 0.36 87 1010.7
20260504001548 16 134 3.2 8.0 0.33 0.33 0.33 82 1011.1
20260504000043 21 313 3.2 25.7 0.15 0.15 0.15 63 1011.2
20260503234538 26 115 1.6 11.3 0.00 0.00 0.00 36 1009.8
20260503233046 27 0 1.6 4.8 0.00 0.00 0.00 40 1008.0
20260503231545 28 215 1.6 8.0 0.00 0.00 0.00 39 1007.1
20260503230045 30 198 0.0 8.0 0.00 0.00 0.00 36 1007.1
20260503224543 29 187 0.0 9.7 0.00 0.00 0.00 33 1007.2
20260503223039 29 0 0.0 8.0 0.00 0.00 0.00 29 1007.5
20260503221537 29 180 3.2 8.0 0.00 0.00 0.00 32 1007.5
20260503220044 29 195 1.6 9.7 0.00 0.00 0.00 32 1007.6
20260503214542 29 280 3.2 9.7 0.00 0.00 0.00 31 1008.0
20260503213044 29 206 3.2 11.3 0.00 0.00 0.00 32 1008.4
20260503211537 28 0 1.6 4.8 0.00 0.00 0.00 37 1008.6
20260503210044 27 275 0.0 4.8 0.00 0.00 0.00 37 1008.7
20260503204554 27 191 3.2 9.7 0.00 0.00 0.00 38 1008.9
20260503203049 26 188 3.2 9.7 0.00 0.00 0.00 46 1009.1
20260503201546 26 198 1.6 4.8 0.00 0.00 0.00 49 1009.2
20260503200045 25 190 1.6 9.7 0.00 0.00 0.00 51 1009.5
20260503194546 24 176 1.6 8.0 0.00 0.00 0.00 55 1009.6
20260503193047 25 192 0.0 6.4 0.00 0.00 0.00 50 1009.7
20260503191608 24 231 1.6 8.0 0.00 0.00 0.00 52 1010.0
20260503190048 23 211 3.2 8.0 0.00 0.00 0.00 58 1010.2
20260503184547 22 176 4.8 9.7 0.00 0.00 0.00 59 1010.4
20260503183039 21 0 1.6 9.7 0.00 0.00 0.00 60 1010.7
20260503181547 21 186 3.2 9.7 0.00 0.00 0.00 63 1010.9
20260503180055 20 166 1.6 8.0 0.00 0.00 0.00 64 1011.1
20260503174551 19 194 3.2 6.4 0.00 0.00 0.00 66 1011.2
20260503173042 18 201 0.0 6.4 0.00 0.00 0.00 71 1011.5
20260503171539 18 0 0.0 4.8 0.00 0.00 0.00 70 1011.5